カタログに戻る

DELTA 1 DEB

運用中SSO
NORAD 12203·DEBRIS·🇺🇸 United States

打ち上げ Mar 5, 1978 から Vandenberg Space Force Base

Loading…

次のパス (今後24時間)

TLE

最新Source: Space-Track

元期: Sep 14, 2026, 07:27 UTC

1 12203U 78026AU  26257.31076568  .00000476  00000-0  16233-3 0  9994
2 12203  98.6266 283.6533 0059078 284.6724 136.5674 14.40047967376986

AllMySatでDELTA 1 DEBをリアルタイム追跡

Download on the App Store